Flag for Germany Weather past 2 weeks in Halle, Saxony-Anhalt, Germany

43 °F

Partly sunny.

Feels Like: 34 °F
Forecast: 40 / 49 °F
Wind: 18 mph from Southwest

Location: Leipzig-Schkeuditz

Current Time: Nov 29, 2015 at 10:49:12 AM

Latest Report: Nov 29, 2015 at 10:20 AM

Visibility: N/A

Pressure: 29.83 "Hg

Humidity: 76%

Dew point: 36 °F

Location of HalleLocation

Historic Weather in Halle — Graph


Halle temperature yesterday

Maximum temperature yesterday: 37 °F (at 3:20 PM)
Minimum temperature yesterday: 28 °F (at 12:50 AM)
Average temperature yesterday: 33 °F

Past Weeks' High & Low Weather Summary

High59 °F (Nov 17, 1:50 PM)100% (Nov 14, 11:50 PM)30.24 "Hg (Nov 14, 11:50 PM)
Low28 °F (Nov 23, 10:20 PM)55% (Nov 18, 1:20 PM)29.36 "Hg (Nov 21, 12:20 PM)
Average42 °F87%29.83 "Hg
* Reported Nov 14 9:20 AM — Nov 29 9:20 AM, Halle, Weather by CustomWeather, © 2015

Note: Actual official high and low records may vary slightly from our data, if they occured in-between our weather recording intervals... More about our weather records


Halle weather history for previous 24 hours

Time TempWeatherWind HumidityBarometerVisibility
9:20 AM
Sun, Nov 29
41 °FMostly cloudy.21 mph81%29.83 "HgN/A
8:50 AM41 °FMostly cloudy.21 mph81%29.83 "HgN/A
8:20 AM41 °FMore clouds than sun.21 mph81%29.80 "HgN/A
7:50 AM41 °FMore clouds than sun.17 mph81%29.83 "HgN/A
7:20 AM41 °FPartly cloudy.15 mph81%29.83 "HgN/A
6:50 AM41 °FPassing clouds.20 mph81%29.80 "HgN/A
6:20 AM39 °FPassing clouds.20 mph87%29.80 "HgN/A
5:20 AM39 °FLight rain. Passing clouds.23 mph87%29.80 "HgN/A
4:50 AM39 °FLight rain. Partly cloudy.18 mph81%29.83 "HgN/A
4:20 AM39 °FLight rain. Passing clouds.18 mph81%29.83 "HgN/A
3:50 AM39 °FPassing clouds.20 mph81%29.83 "HgN/A
3:20 AM39 °FPartly cloudy.20 mph75%29.86 "HgN/A
2:50 AM37 °FClear.20 mph81%29.83 "Hg10 mi
2:20 AM37 °FClear.18 mph81%29.86 "Hg10 mi
1:50 AM37 °FClear.15 mph81%29.86 "Hg10 mi
12:50 AM37 °FClear.18 mph81%29.92 "Hg10 mi
12:20 AM37 °FClear.13 mph81%29.92 "Hg10 mi
11:50 PM
Sat, Nov 28
37 °FClear.14 mph81%29.95 "Hg10 mi
11:20 PM37 °FClear.17 mph81%29.95 "Hg10 mi
10:50 PM36 °FClear.15 mph87%29.95 "Hg10 mi
10:20 PM36 °FClear.15 mph87%29.95 "Hg10 mi
9:20 PM36 °FClear.15 mph87%29.95 "Hg10 mi
8:50 PM36 °FClear.13 mph87%29.98 "Hg10 mi
8:20 PM34 °FClear.14 mph93%29.95 "Hg10 mi
7:50 PM34 °FClear.15 mph93%29.95 "Hg10 mi
7:20 PM36 °FClear.16 mph93%29.95 "Hg10 mi
6:50 PM36 °FClear.14 mph93%29.95 "Hg10 mi
6:20 PM36 °FClear.14 mph93%29.95 "Hg10 mi
5:50 PM36 °FClear.15 mph93%29.92 "Hg10 mi
5:20 PM34 °FClear.12 mph93%29.92 "Hg10 mi
4:50 PM36 °FClear.16 mph93%29.92 "Hg10 mi
4:20 PM36 °FClear.14 mph93%29.89 "Hg10 mi
3:50 PM37 °FSunny.15 mph93%29.89 "Hg10 mi
3:20 PM37 °FPartly sunny.13 mph93%29.86 "HgN/A
2:50 PM36 °FBroken clouds.15 mph100%29.83 "HgN/A
2:20 PM36 °FLight rain. Partly sunny.17 mph93%29.83 "HgN/A
1:50 PM34 °FLight rain. Partly sunny.17 mph100%29.80 "HgN/A
1:20 PM34 °FLight rain. Low clouds.16 mph100%29.80 "HgN/A
12:50 PM34 °FLight rain. More clouds than sun.18 mph100%29.77 "HgN/A
12:20 PM32 °FLight snow. Low clouds.15 mph100%29.77 "Hg2 mi
11:50 AM32 °FSnow. Low clouds.14 mph100%29.77 "Hg1 mi
11:20 AM32 °FSnow. Low clouds.15 mph100%29.74 "Hg1 mi
10:50 AM34 °FLight snow. Overcast.17 mph93%29.74 "Hg1 mi
10:20 AM32 °FLight snow. Overcast.16 mph100%29.74 "Hg2 mi
Weather by CustomWeather, © 2015

See weather overviewHow to use our weather pages